Regional Weather Roundup
Issued by NWS

Home | Current Version | Previous Version | Text Only | Print | Product List | Glossary On
Versions: 1 2 3 4 5 6 7 8 9 10 11 12 13 14 15 16 17 18 19 20 21 22 23 24 25 26 27 28 29 30 31 32 33 34 35 36 37 38 39 40 41 42 43 44 45 46 47 48 49 50
000
ASUS43 KMKX 260911
RWRWI

WISCONSIN REGIONAL WEATHER ROUNDUP
NATIONAL WEATHER SERVICE MILWAUKEE/SULLIVAN WI
400 AM CDT SUN APR 26 2015

NOTE: "FAIR" INDICATES FEW OR NO CLOUDS BELOW 12,000 FEET WITH NO
SIGNIFICANT WEATHER AND/OR OBSTRUCTIONS TO VISIBILITY.

WIZ001-002-006>008-014>016-023>028-261000-
NORTHWEST WISCONSIN

CITY           SKY/WX    TMP DP  RH WIND       PRES   REMARKS
SUPERIOR ARPT  CLEAR     24  23  96 CALM      30.11R
ASHLAND        CLEAR     23  22  96 CALM      30.10R
HAYWARD        CLEAR     29  22  75 N6        30.06S WCI  23
SIREN          CLEAR     31  23  73 NE3       30.07R
CUMBERLAND     CLEAR     32  23  69 NE7       30.03S WCI  26
RICE LAKE      CLEAR     32  23  69 N5        30.05R WCI  27
CHETEK         CLEAR     36  23  60 CALM      30.04R
LADYSMITH      CLEAR     32  23  69 NE5       30.05S WCI  27
EAU CLAIRE     CLEAR     32  24  72 NE6       30.02R WCI  26
MENOMONIE      CLEAR     36  23  60 CALM      30.03R
NEW RICHMOND   CLEAR     33  22  64 NE3       30.02S
OSCEOLA        CLEAR     33  22  63 CALM      30.06S
$$

WIZ003>005-009-010-017-018-261000-
NORTH CENTRAL WISCONSIN

CITY           SKY/WX    TMP DP  RH WIND       PRES   REMARKS
MANITOWISH WTR CLEAR     25  22  89 CALM      30.04S
ARBOR VITAE    CLEAR     27  19  73 CALM      30.04R
WOODRUFF       CLEAR     27  19  73 CALM      30.04R
RHINELANDER    CLEAR     29  20  69 N6        30.04R WCI  23
EAGLE RIVER    CLEAR     26  20  77 CALM      30.03S
LAND O LAKES   CLEAR     24  20  83 CALM      30.04S
PHILLIPS       CLEAR     26  20  76 NE5       30.04R WCI  21
TOMAHAWK       CLEAR     26  21  83 CALM      30.04S
MEDFORD        CLEAR     28  22  78 NE6       30.02R WCI  22
MERRILL        CLEAR     27  21  79 NE3       30.03S
$$

WIZ029-030-035-036-043>047-261000-
CENTRAL WISCONSIN

CITY           SKY/WX    TMP DP  RH WIND       PRES   REMARKS
WAUSAU         CLEAR     34  22  61 CALM      30.01R
MOSINEE        CLEAR     34  21  60 N7        30.02S WCI  28
MARSHFIELD     CLEAR     36  20  52 NE5       30.01R WCI  32
STEVENS POINT  CLEAR     31  19  61 N3        30.02R
WAUPACA        CLEAR     35  20  56 CALM      30.03R
WAUTOMA        CLEAR     35  21  57 NE7       30.02R WCI  29
WISC RAPIDS    CLEAR     35  20  54 NE7       30.02R WCI  29
CAMP DOUGLAS   CLEAR     24  24  99 CALM      30.00R
$$

WIZ011>013-019>022-031-037>040-048>050-261000-
NORTHEAST WISCONSIN

CITY           SKY/WX    TMP DP  RH WIND       PRES   REMARKS
ANTIGO         CLEAR     29  22  73 N7        30.02R WCI  22
SHAWANO        CLEAR     35  22  59 N5        30.03S WCI  31
OCONTO         CLEAR     31  21  66 CALM      30.02R
STURGEON BAY   CLEAR     34  25  69 NW7       30.03R WCI  28
GREEN BAY      CLEAR     33  22  63 N8        30.01R WCI  26
MANITOWOC      CLEAR     34  25  69 NW6       30.00R WCI  29
APPLETON       CLEAR     32  23  69 N7        30.01R WCI  26
CLINTONVILLE   CLEAR     34  19  55 N6        30.02R WCI  29
OSHKOSH        CLEAR     38  29  70 NE8       30.00R WCI  32
$$

WIZ032>034-041-042-053>061-261000-
SOUTHWEST WISCONSIN

CITY           SKY/WX    TMP DP  RH WIND       PRES   REMARKS
LA CROSSE      FAIR      35  23  61 CALM      30.01R
SPARTA         CLEAR     25  18  77 CALM      30.02R
VIROQUA        FAIR      33  19  57 NE8       29.98S WCI  26
BOSCOBEL       CLEAR     28  24  85 CALM      29.99S
PRAIRIE DU CHI CLEAR     31  29  91 CALM      29.99S
PLATTEVILLE    CLEAR     32  23  70 N9        29.95S WCI  24
$$

WIZ056-057-062-063-064-067-068-261000-
SOUTH CENTRAL WISCONSIN

CITY           SKY/WX    TMP DP  RH WIND       PRES   REMARKS
REEDSBURG      CLEAR     31  17  56 CALM      29.99R
BARABOO/DELLS  CLEAR     29  19  67 CALM      29.99R
LONE ROCK      CLEAR     29  22  75 CALM      29.98S
MINERAL POINT  CLEAR     36  18  48 N9        29.95R WCI  29
MADISON        CLEAR     32  22  66 N5        29.97R WCI  27
MIDDLETON      CLEAR     35  24  64 NE8       29.97S WCI  29
WATERTOWN      CLEAR     32  26  78 N3        29.96R
MONROE         CLEAR     34  27  75 N12       29.94R WCI  25
JANESVILLE     CLEAR     36  23  60 NE5       29.93S WCI  32
$$

WIZ051-052-058>065-066-070>072-261000-
SOUTHEAST WISCONSIN

CITY           SKY/WX    TMP DP  RH WIND       PRES   REMARKS
MILWAUKEE      PTCLDY    37  30  75 N9        29.96R WCI  30
WAUKESHA       CLEAR     32  27  80 N3        29.96S
MILWAUKEE/TIMM CLEAR     34  28  80 N6        29.97R WCI  29
RACINE         CLEAR     37  30  75 N9        29.96R WCI  30
BURLINGTON     CLEAR     29  24  81 CALM      29.94S
KENOSHA        CLEAR     34  29  82 NE5       29.94R WCI  30
FOND DU LAC    CLEAR     37  25  61 NE9       30.00R WCI  30
SHEBOYGAN      CLEAR     35  26  69 N8        29.98R WCI  29
WEST BEND      CLEAR     34  28  80 N3        29.97R
JUNEAU         CLEAR     34  25  69 N8        29.98R WCI  27
$$

LSZ147-162-261000-
LAKE SUPERIOR

STATION/POSITION TIME  TEMP    WIND        PRES    WAVE
                       AIR SEA DIR/SP/G            HT/PER
                 (UTC) (F)     (DEG/KT/KT) (MB)    (FT/S)
W MID LAKE BUOY  0850   36 34  350/  6/  6 1020.2R   1
DEVILS ISLAND    0900   36      10/  5/  6 1019.9R
PORT WING        0800   28     140/  2/  3 1019.0S
SAXON HARBOR     0840   26      CALM  /  3 1018.6R
$$

LMZ867-665-643>646-261000-
LAKE MICHIGAN

STATION/POSITION TIME  TEMP    WIND        PRES    WAVE
                       AIR SEA DIR/SP/G            HT/PER
                 (UTC) (F)     (DEG/KT/KT) (MB)    (FT/S)
CHAMBERS ISLAND  0800   36     340/  9/ 11 1015.9S
NORTHPORT PIER   0800   37     330/ 11/ 14 1015.6S
SISTER BAY       0802   36     350/ 12/ 15   N/A
KEWAUNEE LAKESHO 0800   35     360/  7/ 10 1014.6R
SHEBOYGAN LAKESH 0900   38      10/ 16/ 17 1016.2R
PORT WASHINGTON  0840   37     350/  6/ 10 1015.6R
MILWAUKEE LAKESH 0800   40     360/ 10/ 12   N/A
KENOSHA   LAKESH 0900   42      30/ 14/ 16 1013.9R
$$

TC  - TEMPERATURE IN CELSIUS
VSB - VISIBILITY IN STATUTE MILES
WCI - WIND CHILL INDEX
HX  - HEAT INDEX



USA.gov is the U.S. government's official web portal to all federal, state and local government web resources and services.